DLH178 EKCH-EDDH

Flight info

Callsign DLH178
Flight time 0h 33m
Altitude 24000
Route NEXEN T503 MICOS N850 BOGMU BOGMU5A
Aircraft A320/M-SDE3FGHIRWY/LB1

Departure

Time 2026-04-30 17:43
Airport Copenhagen Kastrup Airport (EKCH)

Arrival

Time 2026-04-30 18:17
Airport Hamburg Helmut Schmidt Airport (EDDH)
Time Latitude Longitude Altitude Speed Heading
2026-04-30 17:39 55.60469 12.63271 24 ft 0 kts 132°
2026-04-30 17:41 55.60470 12.63546 24 ft 0 kts 42°
2026-04-30 17:42 55.61879 12.65741 290 ft 153 kts 41°
2026-04-30 17:43 55.63515 12.68289 1559 ft 167 kts 37°
2026-04-30 17:44 55.66677 12.73084 2886 ft 226 kts 37°
2026-04-30 17:44 55.68330 12.80590 5364 ft 248 kts 110°
2026-04-30 17:46 55.60278 12.79043 9268 ft 301 kts 223°
2026-04-30 17:47 55.53615 12.68296 11285 ft 366 kts 221°
2026-04-30 17:48 55.45071 12.55552 12773 ft 422 kts 220°
2026-04-30 17:48 55.38195 12.45406 14561 ft 438 kts 220°
2026-04-30 17:49 55.28705 12.31395 16796 ft 452 kts 220°
2026-04-30 17:50 55.18913 12.17047 18797 ft 465 kts 220°
2026-04-30 17:51 55.11377 12.06091 20020 ft 473 kts 220°
2026-04-30 17:52 55.03733 11.95002 21188 ft 480 kts 220°
2026-04-30 17:53 54.90830 11.76441 22903 ft 490 kts 220°
2026-04-30 17:54 54.80248 11.61373 24077 ft 497 kts 219°
2026-04-30 17:55 54.68938 11.47236 24438 ft 507 kts 216°
2026-04-30 17:56 54.57406 11.33159 24081 ft 505 kts 216°
2026-04-30 17:57 54.48881 11.22654 23287 ft 500 kts 216°
2026-04-30 17:58 54.40465 11.12242 22475 ft 494 kts 218°
2026-04-30 17:59 54.29779 10.97745 21436 ft 486 kts 218°
2026-04-30 18:00 54.19171 10.83692 20426 ft 479 kts 217°
2026-04-30 18:00 54.11330 10.73403 19698 ft 473 kts 217°
2026-04-30 18:01 54.06202 10.66675 18100 ft 460 kts 217°
2026-04-30 18:02 53.98697 10.56891 15435 ft 448 kts 216°
2026-04-30 18:02 53.91371 10.47358 12922 ft 436 kts 216°
2026-04-30 18:03 53.84309 10.38222 11306 ft 415 kts 216°
2026-04-30 18:04 53.77691 10.29696 10558 ft 363 kts 216°
2026-04-30 18:05 53.71509 10.19087 9034 ft 301 kts 234°
2026-04-30 18:06 53.66895 10.07654 7431 ft 293 kts 234°
2026-04-30 18:07 53.60766 9.99657 7437 ft 285 kts 194°
2026-04-30 18:08 53.55100 9.96593 7438 ft 285 kts 194°
2026-04-30 18:09 53.48843 9.90745 7433 ft 285 kts 224°
2026-04-30 18:10 53.44264 9.80926 6522 ft 278 kts 234°
2026-04-30 18:11 53.43055 9.68948 5006 ft 261 kts 314°
2026-04-30 18:11 53.47510 9.67823 4573 ft 226 kts 41°
2026-04-30 18:12 53.50471 9.73542 3682 ft 217 kts 52°
2026-04-30 18:13 53.52428 9.77438 3037 ft 215 kts 51°
2026-04-30 18:13 53.55044 9.82694 2715 ft 179 kts 52°
2026-04-30 18:14 53.56667 9.85979 1921 ft 183 kts 51°
2026-04-30 18:15 53.58965 9.90595 1029 ft 151 kts 51°
2026-04-30 18:15 53.60809 9.94318 433 ft 133 kts 52°
2026-04-30 18:16 53.61979 9.96678 95 ft 130 kts 50°
2026-04-30 18:16 53.62919 9.98584 44 ft 62 kts 50°
2026-04-30 18:17 53.63077 9.98953 46 ft 30 kts 71°
2026-04-30 18:17 53.63087 9.99219 47 ft 7 kts 95°
2026-04-30 18:17 53.63087 9.99222 47 ft 0 kts 95°
2026-04-30 18:18 53.63087 9.99224 47 ft 0 kts 95°
2026-04-30 18:18 53.63085 9.99261 47 ft 3 kts 95°
2026-04-30 18:19 53.63086 9.99343 47 ft 8 kts 77°
2026-04-30 18:19 53.63090 9.99362 47 ft 0 kts 69°
2026-04-30 18:21 53.63090 9.99363 47 ft 1 kts 69°
2026-04-30 18:21 53.63104 9.99407 46 ft 15 kts 53°
2026-04-30 18:22 53.63152 9.99512 46 ft 5 kts 59°
2026-04-30 18:22 53.63217 9.99659 48 ft 0 kts 51°
2026-04-30 18:23 53.63237 9.99698 47 ft 7 kts 47°
2026-04-30 18:24 53.63278 9.99875 48 ft 8 kts 143°
2026-04-30 18:24 53.63273 9.99881 48 ft 0 kts 143°
2026-04-30 18:24 53.63263 9.99894 48 ft 4 kts 143°
2026-04-30 18:25 53.63248 9.99913 48 ft 0 kts 142°